Location: Gleizolles
(44.4833°N, 6.7667°E)
Time: 02:28:39
(UTC+00:00)

IGS 5A - Pass Details

Date: 09 April 2020
Orbit: 585 x 587 km, 97.6° (Epoch: 29 May)

Event Time Altitude Azimuth Distance (km) Brightness Sun altitude
Exits shadow 20:20:46 42° 57° (ENE) 847 4.0 -21.8°
Drops below altitude 10° 20:24:21 10° 1° (N) 1,919 6.5 -22.3°
Sets 20:26:35 0° 354° (N) 2,824 7.6 -22.6°
